Weather History for West Palm Beach, FL

Change the Weather History Date:

Wednesday, January 16, 2013

  Actual Average Record
Temperature  
Mean Temperature 72 °F 65 °F  
Max Temperature 82 °F 74 °F 84 °F (1954)
Min Temperature 62 °F 57 °F 34 °F (1921)
Degree Days  
Heating Degree Days 0 3  
Month to date heating degree days 0 48  
Since 1 July heating degree days 43 119  
Cooling Degree Days 7 3  
Month to date cooling degree days 150 55  
Year to date cooling degree days 150 55  
Growing Degree Days 22 (Base 50)    
Moisture  
Dew Point 64 °F    
Average Humidity 76    
Maximum Humidity 93    
Minimum Humidity 58    
Precipitation  
Precipitation T in 0.10 in 1.86 in (1991)
Month to date precipitation 0.43 1.72  
Year to date precipitation 0.43 1.72  
Snow  
Snow 0.00 in - - ()
Month to date snowfall 0.0  
Since 1 July snowfall 0.0  
Snow Depth 0.00 in    
Sea Level Pressure  
Sea Level Pressure 30.06 in    
Wind  
Wind Speed 6 mph (SE)    
Max Wind Speed 18 mph    
Max Gust Speed 25 mph    
Visibility 10 miles    
Events      
T = Trace of Precipitation, MM = Missing Value Source: NWS Daily Summary

Daily Weather History Graph

Daily Weather History Graph

Search for Another Location

Airport:

Trip Planner

Search our weather history database for the weather conditions in past years. The results will help you decide how hot, cold, wet, or windy it might be!

Date:

Astronomy

Jan. 16, 2013 Rise Set
Actual Time 7:10 AM EST 5:50 PM EST
Civil Twilight 6:45 AM EST 6:15 PM EST
Nautical Twilight 6:17 AM EST 6:43 PM EST
Astronomical Twilight 5:49 AM EST 7:11 PM EST
Moon 10:20 AM EST (1/16) 11:02 PM EST (1/16)
Length of Visible Light 11h 29m
Length of Day
10h 40m
Waxing Crescent, 28% of the Moon is Illuminated
Jan 16
Waxing Crescent
Jan 18
First Quarter
Jan 26
Full
Feb 3
Last Quarter
Feb 10
New

Hourly Weather History & Observations

Time (EST) Temp. Heat Index Dew Point Humidity Pressure Visibility Wind Dir Wind Speed Gust Speed Precip Events Conditions
12:53 AM 66.0 °F - 61.0 °F 84% 30.05 in 10.0 mi Calm Calm - N/A   Partly Cloudy
1:53 AM 64.9 °F - 61.0 °F 87% 30.06 in 10.0 mi Calm Calm - N/A   Scattered Clouds
2:53 AM 64.9 °F - 61.0 °F 87% 30.05 in 10.0 mi Calm Calm - N/A   Partly Cloudy
3:53 AM 63.0 °F - 60.1 °F 90% 30.05 in 10.0 mi Calm Calm - N/A   Partly Cloudy
4:53 AM 62.1 °F - 60.1 °F 93% 30.05 in 10.0 mi Calm Calm - N/A   Scattered Clouds
5:53 AM 64.9 °F - 61.0 °F 87% 30.06 in 10.0 mi Calm Calm - 0.00 in   Scattered Clouds
6:53 AM 66.9 °F - 63.0 °F 87% 30.07 in 10.0 mi Calm Calm - N/A   Mostly Cloudy
7:53 AM 68.0 °F - 64.0 °F 87% 30.09 in 10.0 mi Calm Calm - N/A   Scattered Clouds
8:53 AM 75.0 °F - 66.0 °F 73% 30.10 in 10.0 mi Calm Calm - N/A   Scattered Clouds
9:53 AM 79.0 °F - 66.9 °F 66% 30.11 in 10.0 mi South 5.8 mph - N/A   Mostly Cloudy
10:53 AM 79.0 °F - 64.0 °F 60% 30.09 in 10.0 mi SSE 10.4 mph - N/A   Mostly Cloudy
11:53 AM 78.1 °F - 64.0 °F 62% 30.07 in 10.0 mi SE 10.4 mph - N/A   Mostly Cloudy
12:53 PM 80.1 °F 81.9 °F 64.9 °F 60% 30.05 in 10.0 mi SE 12.7 mph - N/A   Mostly Cloudy
1:53 PM 81.0 °F 82.7 °F 64.9 °F 58% 30.03 in 10.0 mi ESE 13.8 mph 18.4 mph N/A   Mostly Cloudy
2:53 PM 79.0 °F - 66.9 °F 66% 30.02 in 10.0 mi SE 15.0 mph - N/A   Mostly Cloudy
3:53 PM 79.0 °F - 66.0 °F 64% 30.03 in 10.0 mi SE 12.7 mph - N/A   Mostly Cloudy
4:53 PM 78.1 °F - 66.9 °F 68% 30.03 in 10.0 mi SE 13.8 mph - N/A   Mostly Cloudy
5:53 PM 77.0 °F - 66.9 °F 71% 30.04 in 10.0 mi SSE 8.1 mph - N/A   Mostly Cloudy
6:53 PM 75.9 °F - 66.0 °F 71% 30.06 in 10.0 mi SSE 10.4 mph - N/A   Scattered Clouds
7:53 PM 75.0 °F - 66.9 °F 76% 30.06 in 10.0 mi SSE 8.1 mph - N/A   Scattered Clouds
8:53 PM 75.0 °F - 66.9 °F 76% 30.07 in 10.0 mi SE 8.1 mph - N/A   Scattered Clouds
9:53 PM 73.9 °F - 66.9 °F 79% 30.06 in 10.0 mi SSE 4.6 mph - N/A   Scattered Clouds
10:53 PM 73.0 °F - 66.0 °F 79% 30.05 in 10.0 mi SSE 4.6 mph - N/A   Scattered Clouds
11:53 PM 73.9 °F - 68.0 °F 82% 30.04 in 10.0 mi SSE 6.9 mph - N/A   Mostly Cloudy